Weather in Krasnyy Gulyay

Russia / Ulyanovsk Oblast     54°01′28″N   48°19′49″E
temp.,
°C
wind,
m/s
gust,
m/s
humid.,
%
clouds,
%
prec.,
mm/h
press.,
hPa
HPBL,
m
19 january, tue
tue1901:00−20nne2399100 0.8 1019131
04:00−20nne3499100 1.3 1018183
07:00−20n2499100 0.3 1016163
10:00−21nnw2399100 0.3 1017138
13:00−18nw239599 0.1 1016243
16:00−20nnw229899 0.1 101561
19:00−23w2210086 0.0 101620
22:00−24w239877 0.0 101629
20 january, wed
wed2001:00−24w239857 0.0 101731
04:00−24wsw239952 0.0 101732
07:00−25wsw339976 0.0 101743
10:00−24wsw349872 0.0 101886
13:00−20wsw359679 0.0 1018205
16:00−19wsw359771 0.0 1019110
19:00−20wsw349992 0.0 102078
22:00−20wsw369796 0.0 1021127
21 january, thu
thu2101:00−20wsw3598100 0.0 102291
04:00−20wsw359998 0.0 102297
07:00−18wsw479799 0.1 1022183
10:00−16wsw499699 0.1 1023239
13:00−14wsw5894100 0.0 1022247
16:00−13sw51094100 0.0 1021270
19:00−13sw51190100 0.0 1020282
22:00−11ssw71485100 0.0 1016433
22 january, fri
fri2201:00−10wsw71494100 2.1 1014823
04:00−10wsw61293100 3.0 1012647
07:00−9wsw51194100 0.3 1011509
10:00−7wsw3896100 0.6 1012366
13:00−4wsw249699 0.4 1012241
16:00−2s1398100 0.9 1013136
19:00−1sw249999 0.4 1013129
22:00+1wsw3610099 0.7 1014160
23 january, sat
sat2301:00+1wsw4999100 0.4 1015236
04:00+1wsw5999100 0.7 1016327
07:00+1sw51094100 0.0 1016374
10:000sw51093100 0.0 1017376
13:00+1sw611100100 0.0 1017427
16:00+1sw61298100 0.0 1017456
19:00+1wsw51195100 0.0 1018553
22:00+1wsw51096100 0.0 1019531